Regional Weather Roundup
Issued by NWS

Home | Current Version | Previous Version | Text Only | Print | Product List | Glossary Off
Versions: 1 2 3 4 5 6 7 8 9 10 11 12 13 14 15 16 17 18 19 20 21 22 23 24 25 26 27 28 29 30 31 32 33 34 35 36 37 38 39 40 41 42 43 44 45 46 47 48 49 50

000
ASUS43 KLOT 012110
RWRIL

ILLINOIS REGIONAL WEATHER ROUNDUP
NATIONAL WEATHER SERVICE CHICAGO/ROMEOVILLE IL
400 PM CDT MON SEP 01 2014

NOTE: "FAIR" INDICATES FEW OR NO CLOUDS BELOW 12,000 FEET WITH NO
SIGNIFICANT WEATHER AND/OR OBSTRUCTIONS TO VISIBILITY.

* THESE STATIONS ARE NOT UNDER NWS QUALITY CONTROL. THEY ALSO MAY NOT
  REPORT WEATHER SUCH AS PRECIPITATION OR FOG.

ILZ001-002-007-009-015-016-024-012200-
NORTHWEST ILLINOIS

CITY           SKY/WX    TMP DP  RH WIND       PRES   REMARKS
MOLINE         PTSUNNY   80  66  62 W13       29.79S HX  82
STERLING*      SUNNY     82  66  57 W15       29.78S HX  85
SAVANNA*       MOSUNNY   83  63  51 SW13      29.76S HX  84
$$

ILZ003-004-008-010-011-017-018-012200-
NORTH CENTRAL ILLINOIS

CITY           SKY/WX    TMP DP  RH WIND       PRES   REMARKS
ROCKFORD       PTSUNNY   81  65  58 SW16G22   29.76S HX  83
FREEPORT*      SUNNY     80  68  66 W12G17    29.78S HX  83
ROCHELLE*      MOSUNNY   81  66  60 SW13G21   29.78S HX  83
DE KALB*       PTSUNNY   78  64  62 SW17      29.78F HX  80
PERU*          PTSUNNY   81  66  58 SW17      29.81R HX  83
$$

ILZ005-006-012>014-019>023-012200-
NORTHEAST ILLINOIS

CITY           SKY/WX    TMP DP  RH WIND       PRES   REMARKS
CHICAGO-OHARE  PTSUNNY   81  63  54 W14       29.76S HX  82
CHICAGO-MIDWAY PTSUNNY   83  66  56 SW17      29.77R HX  85
AURORA         PTSUNNY   82  65  56 SW17      29.78S HX  84
LANSING*         N/A    N/A N/A N/A MISG        N/A
JOLIET*        MOSUNNY   81  62  52 SW10G16   29.79S HX  82
WAUKEGAN       PTSUNNY   80  64  58 SW14G25   29.73S HX  82
DUPAGE AIRPORT PTSUNNY   82  65  56 SW17G24   29.77S HX  84
KANKAKEE*      SUNNY     82  68  61 SW16      29.81S HX  85
WHEELING       MOSUNNY   84  64  50 SW13G21   29.76F HX  85
MORRIS*        SUNNY     83  68  60 SW9       29.79S HX  85
ROMEOVILLE*    MOSUNNY   81  64  55 SW14G20   29.78F HX  82
NORTHERLY ISL    N/A     82  61  48 SW16        N/A  HX  83
$$

LMZ740>746-012200-
SOUTHERN LAKE MICHIGAN

STATION/POSITION SKY/WX   TEMP    WIND        PRES    VSBY  WAVE
                          AIR SEA DIR/SP/G                  HT/PER
                          (F)     (DEG/KT/KT) (MB)    (MI)  (FT/S)
SOUTHERN BUOY              73 70  210/ 12/ 14 1006.4F         2/ 4
WAUKEGAN HARBOR            80     250/ 17/ 24   N/A
HARRISON CRIB              80     220/ 20/ 27   N/A
BURNHAM HARBOR             81     220/ 11/ 17   N/A
CALUMET HARBOR             83     230/  7/ 15 1006.8S
MICHIGAN CITY              79     210/ 14/ 17   N/A
MICHIGAN CITY 6N           77 72  240/ 10/ 14   N/A           2/ 3
ST. JOSEPH                 74 72  220/ 10/ 12   N/A           2/ 4
$$

ILZ025>027-034>036-040-047-049-050-058-095>099-012200-
WEST-CENTRAL ILLINOIS

CITY           SKY/WX    TMP DP  RH WIND       PRES   REMARKS
QUINCY         SUNNY     81  67  62 W12       29.87R HX  83
GALESBURG*     PTSUNNY   81  69  66 SW12G17   29.83S HX  83
MACOMB*        MOSUNNY   79  66  64 SW16G22   29.86S HX  81
JACKSONVILLE*  MOSUNNY   84  67  56 SW10      29.87F HX  86
PITTSFIELD*    MOSUNNY   83  65  55 SW7       29.88S HX  84
$$

ILZ028>032-037-038-041>044-048-051>054-059>061-012200-
CENTRAL ILLINOIS

CITY           SKY/WX    TMP DP  RH WIND       PRES   REMARKS
PONTIAC        MOSUNNY   82  66  57 SW10      29.82S HX  85
DECATUR        PTSUNNY   82  65  56 W10       29.87F HX  84
PEORIA         SUNNY     81  65  58 SW16      29.83S HX  83
LACON*         SUNNY     81  65  58 SW14      29.80S HX  83
LINCOLN*       MOSUNNY   82  63  52 W7        29.83F HX  83
SPRINGFIELD    SUNNY     83  65  54 W12       29.86F HX  85
TAYLORVILLE    PTSUNNY   79  66  65 SW12      29.87F HX  81
$$

ILZ033-039-045-046-055>057-062-063-012200-
EAST-CENTRAL ILLINOIS

CITY           SKY/WX    TMP DP  RH WIND       PRES   REMARKS
CHAMPAIGN      MOSUNNY   80  65  59 W17       29.87F HX  82
DANVILLE*      PTSUNNY   81  67  62 W16G25    29.82S HX  84
RANTOUL*       MOSUNNY   82  64  56 SW14      29.86F HX  83
MATTOON        PTSUNNY   82  64  54 W9G17     29.87F HX  83
PARIS*         PTSUNNY   83  66  56 SW14G22   29.88S HX  86
$$

ILZ079-100>102-012200-
SOUTHWEST ILLINOIS

CITY           SKY/WX    TMP DP  RH WIND       PRES   REMARKS
BELLEVILLE     PTSUNNY   84  69  60 VRB5      29.90S HX  88
CAHOKIA*       PTSUNNY   85  66  53 S7        29.89S HX  87
SPARTA*        CLOUDY    82  68  63 CALM      29.94R HX  85
$$

ILZ064>066-069>071-074>076-080>082-084>086-088>090-092>094-012200-
SOUTH-CENTRAL ILLINOIS

CITY           SKY/WX    TMP DP  RH WIND       PRES   REMARKS
CARBONDALE     CLOUDY    82  69  64 SW12      29.93R HX  85
CAIRO*         CLOUDY    86  73  65 SW10G16   29.91R HX  93
EFFINGHAM*     PTSUNNY   83  62  48 W13       29.90S HX  84
MARION         CLOUDY    82  70  65 SW14      29.94R HX  86
MT. VERNON     CLOUDY    82  68  61 NW3       29.93R HX  85
CENTRALIA*     PTSUNNY   81  66  61 W6        29.92S HX  83
SALEM*         CLOUDY    82  70  65 SW8       29.92S HX  86
METROPOLIS*    CLOUDY    85  73  67 SW13      29.91R HX  91
$$

ILZ067-068-072-073-078-083-087-091-012200-
SOUTHEAST ILLINOIS

CITY           SKY/WX    TMP DP  RH WIND       PRES   REMARKS
LAWRENCEVILLE  CLOUDY    82  74  76 W9        29.91S HX  88
FLORA*         CLOUDY    81  66  61 W10       29.92S HX  83
FAIRFIELD*     CLOUDY    84  75  74 SW9       29.91S HX  92
HARRISBURG*    CLOUDY    83  73  71 W8        29.94R HX  89
ROBINSON*      CLOUDY    85  73  66 W15G24    29.90S HX  91
CARMI*         CLOUDY    87  76  71 SW13      29.92R HX  97
$$

ABBREVIATIONS USED IN REMARKS
   TC - TEMPERATURE IN CELSIUS
  WCI - WIND CHILL INDEX
   HX - HEAT INDEX
  VSB - VISIBILITY
$$




USA.gov is the U.S. government's official web portal to all federal, state and local government web resources and services.